Showing default

STELLA, 22824

Orbit data source: Space-Track

STELLA, 22824 is a payload satellite owned by CNES (FR) in SSO that was launched on Sun, 26 Sep 1993 UTC via an ARIANE 40 launch vehicle from the French Guiana (FRGUI). Payload-class satellites include a variety of spacecraft equipped with specific instruments for various scientific and technological missions. These include communications satellites like Starlink; space stations such as the ISS; scientific satellites like the Hubble; Earth observation satellites from companies like Planet Labs, Umbra, and HawkEye 360; GPS; miniature CubeSats for education and research; and military/defense satellites.

Loading next visibility...
Identifier
22824, 1993-061B
Orbit
SSO
Country
Flag of FRFR
Related business
Manufacturer
CNES
Mission
Operational Civil Geodetic
Bus & Motor
STARLETTE, Unknown motor
Mass
48 kg wet, 48 kg dry
Launch date (UTC)
1993-09-26 (32 years ago)
Launch vehicle
ARIANE 40
Launch site
French Guiana (FRGUI)
Object type
Payload
Rocket body
Debris
Shape & HBR
Sphere, 0.1 m
Radar Cross Section
0.045 m², Medium (>0.1 m² and < 1m²)

Expand to show TLE details & history
Last TLE update: 12 hours ago

TLE from 12 hours ago
0 STELLA
1 22824U 93061B   25258.28907788 -.00000046  00000-0 -15578-6 0  9992
2 22824  98.8150 315.9777 0005685 324.9927 124.0699 14.27459181665550
Epoch: 2025-09-15T06:56Z
TLE epoch observation values (Epoch: 2025-09-15T06:56:16.328Z)
Latitude
81.18729°
Longitude
133.16727°
Altitude
815.943 km
Speed
7.451 km/s
True Right ascension
15h 26m 55s
True Declination
81° 08' 08"
Sunlit
Object was in daylight at epoch
Visualization orbit readout
Latitude
Unknown
Longitude
Unknown
Altitude
Unknown
Speed
Unknown
Apparent Right ascension
Unknown
Apparent Declination
Unknown
Sunlit
N/A
Visualization observer readout
Local Sidereal Time
11:43:36
Azimuth
Unknown
Elevation
Unknown
Doppler factor
Unknown
Orbital elements
Apogee altitude
801.469 km
Perigee altitude
793.311 km
Semi-major axis
7,175.527 km
Eccentricity
0.00057
Inclination
98.815°
RAAN
315.9777°
Arg. of periapsis
324.9927°
True anomaly
124.12384°
Mean anomaly
124.0699°
Eccentric anomaly
124.09687°
Mean motion
3.57077 °/min
Orbital period
100.82 mins
BSTAR
-1.5578e-7
Loading maneuver chart data...
Computing Atmospheric mass density...
Loading historical data...
Loading historical data...
Loading historical data...
Loading historical data...
Loading historical data...
Loading historical data...
Loading historical data...

Documentation

Showing up to 5 results
|